This is the latest recevied weather packets stored in our database for station/object KC5AV. If no packets are shown the sender has not sent any weather packets the latest 10 day(s).
| Time | Temp. | Humidity | Pressure | Rain* | Wind** | Luminosity | Snow |
|---|---|---|---|---|---|---|---|
| 1777122864 | 17.78° C | 99% | 1010 hPa | 0 mm | - | 62 W/m² | - |
| 1777122560 | 17.78° C | 99% | 1010.1 hPa | 0 mm | - | 57 W/m² | - |
| 1777122256 | 17.78° C | 99% | 1009.9 hPa | 0 mm | - | 49 W/m² | - |
| 1777121952 | 17.22° C | 99% | 1009.9 hPa | 0 mm | - | 47 W/m² | - |
| 1777121649 | 17.22° C | 99% | 1009.8 hPa | 0 mm | - | 41 W/m² | - |
| 1777121346 | 17.22° C | 99% | 1009.7 hPa | 0 mm | - | 36 W/m² | - |
| 1777121042 | 17.22° C | 99% | 1009.5 hPa | 0 mm | - | 46 W/m² | - |
| 1777120738 | 17.22° C | 99% | 1009.6 hPa | 0 mm | - | 42 W/m² | - |
| 1777120434 | 16.67° C | 99% | 1009.4 hPa | 0 mm | - | 42 W/m² | - |
| 1777120130 | 16.67° C | 98% | 1009.2 hPa | 0 mm | - | 47 W/m² | - |
| 1777119825 | 16.67° C | 98% | 1009 hPa | 0 mm | - | 43 W/m² | - |
| 1777119521 | 16.11° C | 98% | 1009.1 hPa | 0 mm | - | 35 W/m² | - |
| 1777119217 | 16.11° C | 98% | 1009.2 hPa | 0 mm | - | 31 W/m² | - |
| 1777118917 | 16.11° C | 98% | 1008.9 hPa | 0 mm | - | 25 W/m² | - |
| 1777118614 | 16.11° C | 98% | 1008.8 hPa | 0 mm | - | 20 W/m² | - |
| 1777118313 | 16.11° C | 98% | 1008.9 hPa | 0 mm | - | 14 W/m² | - |
| 1777118011 | 16.11° C | 98% | 1008.8 hPa | 0 mm | - | 9 W/m² | - |
| 1777117707 | 16.11° C | 98% | 1009.1 hPa | 0 mm | - | 6 W/m² | - |
| 1777117405 | 16.11° C | 98% | 1008.8 hPa | 0 mm | - | 4 W/m² | - |
| 1777117100 | 15.56° C | 98% | 1008.8 hPa | 0 mm | - | 2 W/m² | - |
| 1777116797 | 15.56° C | 98% | 1009 hPa | 0 mm | - | 1 W/m² | - |
| 1777116492 | 15.56° C | 98% | 1008.8 hPa | 0 mm | - | 1 W/m² | - |
| 1777116189 | 16.11° C | 98% | 1008.8 hPa | 0 mm | - | 0 W/m² | - |
| 1777115889 | 16.11° C | 98% | 1008.6 hPa | 0 mm | - | 0 W/m² | - |
| 1777115585 | 16.11° C | 98% | 1008.8 hPa | 0 mm | - | 0 W/m² | - |
* Rain latest hour (hover to see other rain measurements)
** Current wind speed in m/s (hover to see current wind gust speed)